Wind_Speed
32 30 31 32 32 33 36 36 35 35 34 36 36 37 36 37 43 45 48 48 48 49 47 46 46 43 42 41 42 40 40 45 33 26 29 27 28 34 27 28 30 25 24
31 30 27 27 30 35 34 33 30 30 31 30 31 31 29 31 36 39 43 45 47 48 47 47 45 41 39 40 41 42 44 38 39 28 31 28 31 29 30 29 22 28 23
31 30 32 29 31 31 31 29 27 28 29 29 29 29 28 28 32 36 38 41 43 47 48 47 45 36 30 48 42 46 42 31 27 31 34 31 22 28 31 30 29 26 25
32 32 34 31 31 29 29 27 27 28 29 30 30 29 29 24 28 32 36 38 41 46 47 47 47 51 37 35 37 47 45 33 29 27 31 29 27 30 31 27 24 27 27
34 33 32 29 30 30 28 27 26 26 28 30 30 28 28 23 24 29 32 36 39 42 44 46 48 47 47 27 35 37 41 37 37 26 29 30 34 37 31 23 27 25 29
26 25 26 29 29 28 25 24 24 23 24 24 26 27 25 23 23 26 32 33 37 40 43 42 46 46 39 30 38 39 44 43 27 29 36 39 33 28 20 24 18 20 20
26 27 29 31 29 23 23 21 17 16 13 19 24 24 23 23 22 28 29 33 36 37 37 31 41 28 36 31 37 25 28 33 29 29 30 31 27 19 18 16 11 16 16
30 30 29 26 20 19 20 15 12 14 16 19 24 22 24 24 24 29 31 34 32 28 29 31 34 28 27 28 30 26 24 27 28 25 22 26 24 13 9 11 17 16 17
28 26 19 16 15 15 11 9 12 12 16 20 22 23 26 26 30 28 29 29 27 28 29 29 28 28 29 30 32 27 28 32 27 11 19 24 18 12 11 19 18 17 17
26 21 14 10 10 7 1 9 12 15 20 22 23 26 24 25 27 27 28 28 29 30 29 27 29 34 30 25 22 28 34 30 14 8 15 11 10 12 16 14 16 20 21
20 15 8 6 3 5 11 16 18 18 20 22 27 28 26 25 31 29 30 30 30 27 24 27 35 25 31 31 24 41 31 34 15 17 12 9 9 9 12 13 15 17 10
15 7 5 3 7 11 17 17 17 16 20 26 28 24 23 25 27 30 32 31 26 27 27 31 29 27 26 25 19 28 26 21 18 12 11 14 11 9 11 14 14 10 11
8 6 5 7 10 12 18 17 16 18 20 24 23 17 22 23 27 29 30 29 26 27 27 21 25 21 21 19 18 22 25 20 18 10 13 14 12 10 18 14 12 13 12
6 7 7 11 14 14 17 19 18 17 19 20 13 14 23 18 26 32 29 28 23 27 23 26 20 18 16 23 22 22 19 18 14 15 12 15 13 15 17 15 15 14 12
7 9 10 11 14 19 20 21 20 20 19 14 10 15 15 16 24 28 23 30 22 28 21 23 17 21 23 20 18 22 17 18 17 21 20 16 14 14 14 15 13 11 9
8 10 11 10 15 19 22 18 17 16 18 15 15 13 9 12 25 31 32 25 29 26 23 27 17 21 20 23 22 23 16 15 18 19 18 17 15 11 12 11 10 10 9
8 10 11 10 16 22 16 16 17 19 20 17 14 13 11 15 18 30 31 29 27 23 28 21 26 25 26 27 20 20 14 16 20 19 17 17 15 12 11 10 8 11 15
8 9 11 14 16 17 14 21 20 21 19 17 18 13 11 16 20 28 28 30 36 26 27 25 21 23 26 25 22 19 16 23 14 17 16 14 14 11 8 9 11 14 17
8 10 11 12 16 16 20 21 19 18 18 18 17 16 21 19 22 24 30 28 25 29 21 20 22 21 19 15 15 17 22 17 16 14 11 9 9 6 8 12 14 18 20
10 12 13 11 12 14 16 17 18 19 19 17 16 15 16 17 20 22 28 26 26 28 26 23 25 24 15 19 16 19 21 18 12 8 9 8 7 9 12 15 18 21 23
10 10 11 12 13 15 15 16 17 20 19 16 17 16 15 16 16 23 25 22 23 24 25 27 27 23 23 23 18 18 16 8 6 8 9 8 9 11 14 17 21 24 28
8 8 10 9 10 12 15 17 16 17 15 17 16 16 15 10 16 15 23 23 25 22 22 25 26 25 20 19 16 10 9 9 9 10 9 9 12 15 17 20 25 30 34
9 9 9 12 10 8 12 15 17 17 17 16 13 14 11 15 14 16 20 21 16 25 20 19 17 19 17 12 12 10 7 8 8 10 11 12 13 17 21 27 31 35 39
14 14 11 7 8 7 12 13 16 18 18 15 18 16 15 12 14 19 19 17 22 20 18 15 12 13 14 11 8 7 5 6 9 9 9 13 18 22 27 32 36 39 43
18 18 17 17 13 17 18 17 17 16 16 16 13 18 17 15 18 16 18 18 21 21 18 15 13 9 7 6 4 5 5 8 9 13 15 19 24 28 31 34 39 44 46
17 21 20 24 20 24 22 24 22 21 20 18 20 20 20 19 16 17 19 19 15 14 13 11 10 8 6 6 7 8 8 10 12 15 20 23 27 30 34 39 43 45 43
Wind_Direction
302 299 289 284 282 280 280 278 277 272 269 264 260 257 252 245 242 239 226 224 224 222 223 228 228 228 227 224 220 215 219 224 235 240 234 232 238 242 250 263 273 244 224
300 303 296 289 286 284 281 284 277 271 267 261 257 252 246 242 234 231 224 220 220 220 218 223 222 223 225 224 217 209 213 214 225 230 234 237 242 240 255 265 267 244 227
303 298 297 290 293 287 289 280 271 268 265 257 251 243 239 239 229 222 218 216 215 215 216 215 214 212 224 226 222 215 217 215 228 230 237 227 235 240 249 263 260 234 227
308 300 298 291 298 297 290 279 273 268 260 250 244 241 233 229 220 217 214 211 210 210 211 209 208 204 215 218 204 214 214 230 220 227 219 235 240 245 251 264 251 221 225
303 298 291 290 296 298 286 277 275 267 253 243 238 232 222 219 212 211 211 202 204 206 203 205 210 214 217 222 197 205 221 223 235 235 236 242 245 248 257 258 230 221 230
305 301 294 292 297 292 279 280 277 263 252 239 225 216 211 210 205 208 192 196 196 199 201 202 212 219 220 208 200 205 210 226 223 232 231 239 251 255 273 227 247 232 260
308 304 294 297 301 284 284 281 264 246 230 223 211 201 202 203 196 191 191 191 192 195 198 202 211 201 211 210 211 232 227 218 228 229 237 256 246 249 245 249 239 235 237
308 310 300 292 289 290 289 269 242 221 217 198 187 199 199 188 189 185 188 189 187 190 194 200 209 215 199 200 199 215 215 219 225 237 248 255 255 230 209 232 232 243 253
314 317 313 302 301 301 294 256 204 205 182 180 184 181 175 176 179 180 183 182 180 182 189 192 205 197 192 189 192 211 204 217 225 245 270 241 258 196 184 219 233 245 259
319 316 311 310 316 321 343 160 167 155 145 147 155 156 161 170 172 174 178 176 172 177 183 192 194 182 176 190 201 198 202 214 203 241 235 228 204 180 205 224 234 253 259
322 317 319 338 3 74 112 127 134 141 144 147 148 155 158 161 168 169 171 170 174 178 182 194 171 189 171 190 191 196 207 209 222 237 214 164 188 189 205 233 264 263 230
331 352 10 59 117 110 118 129 131 138 145 144 152 147 158 164 161 170 170 169 173 171 169 174 180 193 186 206 215 207 217 205 216 231 165 156 191 205 226 246 248 243 246
9 24 64 113 128 126 130 132 141 143 143 146 144 146 160 161 175 168 166 170 175 173 174 170 197 157 183 174 186 199 199 219 224 194 162 177 201 187 220 252 244 250 261
44 53 104 122 127 131 129 129 131 131 143 148 159 155 172 170 174 171 170 171 171 164 161 153 182 181 190 183 194 199 196 184 206 184 174 198 206 222 242 241 242 254 255
66 73 101 125 130 133 132 129 128 136 145 151 137 139 160 183 179 179 164 170 162 159 162 156 163 176 192 184 189 171 178 188 202 181 190 200 220 234 240 244 241 251 264
85 89 98 128 137 142 132 136 127 134 145 147 145 137 152 151 172 170 173 162 158 159 156 161 159 185 178 184 176 169 177 197 185 182 191 205 227 239 237 245 256 265 285
94 95 103 115 146 148 149 138 134 129 134 136 131 134 161 153 152 172 173 170 159 161 162 176 178 179 170 169 180 190 190 177 183 195 206 210 220 227 240 259 279 299 299
100 107 104 113 143 151 146 146 134 133 133 133 129 108 122 136 159 156 163 169 171 155 161 164 168 168 171 182 193 192 186 188 208 221 217 226 237 247 271 292 300 290 294
105 112 116 119 127 151 144 150 152 146 136 131 127 120 117 135 126 151 179 191 197 151 166 181 196 173 182 192 199 210 213 231 226 231 243 232 246 269 279 277 290 303 306
103 105 119 138 139 143 153 156 153 150 146 142 131 134 121 133 136 132 158 152 160 179 185 188 183 179 184 201 204 211 218 219 225 229 226 244 262 277 292 303 302 301 306
108 107 109 121 148 153 156 159 155 153 159 144 143 138 132 131 137 128 146 153 171 165 181 178 176 190 195 215 226 211 210 217 213 236 247 254 268 287 291 299 302 304 309
102 111 116 116 128 149 163 164 166 164 169 149 146 145 137 134 140 133 141 149 156 158 162 176 190 203 208 196 199 184 186 208 219 236 253 279 284 289 292 298 305 308 310
82 120 123 109 101 146 161 168 174 177 170 159 156 163 154 146 150 146 151 162 167 168 166 171 174 183 186 178 176 198 208 222 237 254 271 284 298 307 309 307 310 312 315
84 109 98 83 98 138 161 166 168 165 168 173 169 173 163 157 159 159 159 143 155 150 159 162 160 165 169 171 193 193 215 251 267 273 290 303 308 308 309 314 318 314 311
89 90 86 86 76 108 122 130 145 158 176 189 171 168 161 156 149 143 143 150 158 156 153 149 152 161 169 184 197 220 242 265 276 293 299 305 308 316 316 313 312 310 311
93 89 98 88 92 97 106 114 109 118 130 134 135 139 137 137 138 147 147 150 150 147 138 156 168 175 185 201 211 221 241 266 281 294 304 306 313 312 313 311 310 312 311
Height
5741 5737 5735 5734 5732 5731 5730 5730 5728 5728 5729 5729 5730 5733 5737 5741 5746 5751 5757 5764 5772 5780 5788 5794 5802 5809 5814 5818 5824 5830 5836 5840 5843 5844 5846 5847 5849 5852 5854 5854 5855 5854 5856
5734 5732 5730 5727 5725 5723 5722 5720 5719 5719 5719 5720 5721 5724 5727 5731 5736 5741 5747 5755 5763 5772 5781 5788 5796 5804 5809 5813 5818 5824 5828 5833 5837 5840 5843 5840 5844 5847 5848 5849 5850 5850 5852
5727 5724 5722 5720 5719 5716 5714 5712 5712 5711 5711 5712 5714 5717 5721 5725 5728 5733 5740 5748 5756 5765 5774 5782 5791 5802 5805 5805 5811 5818 5824 5828 5834 5835 5837 5838 5839 5842 5843 5845 5844 5848 5849
5721 5718 5715 5713 5710 5707 5705 5704 5704 5703 5703 5704 5707 5710 5714 5719 5722 5728 5735 5742 5750 5758 5767 5776 5784 5787 5783 5796 5798 5814 5819 5824 5828 5830 5831 5833 5835 5837 5838 5840 5843 5843 5845
5715 5711 5708 5706 5703 5700 5698 5696 5695 5695 5695 5696 5699 5704 5709 5714 5717 5723 5730 5737 5744 5752 5761 5771 5777 5782 5785 5784 5786 5806 5816 5820 5823 5826 5827 5829 5830 5832 5834 5836 5838 5838 5843
5709 5705 5702 5699 5695 5692 5690 5689 5688 5686 5686 5688 5693 5699 5705 5710 5715 5720 5726 5734 5740 5747 5758 5768 5775 5779 5784 5792 5797 5801 5811 5816 5820 5821 5823 5824 5826 5828 5832 5833 5834 5837 5842
5704 5701 5696 5692 5688 5685 5683 5681 5680 5680 5681 5683 5689 5696 5701 5708 5713 5718 5725 5732 5738 5746 5756 5764 5773 5777 5782 5787 5795 5799 5804 5810 5815 5817 5819 5820 5823 5827 5829 5831 5833 5835 5837
5699 5694 5688 5684 5681 5679 5676 5674 5675 5677 5678 5682 5687 5693 5700 5707 5711 5718 5724 5731 5739 5747 5755 5763 5771 5778 5780 5787 5794 5796 5801 5806 5811 5813 5814 5818 5822 5823 5825 5829 5830 5833 5836
5693 5688 5682 5679 5677 5675 5671 5669 5672 5674 5676 5681 5686 5693 5699 5705 5711 5718 5725 5733 5741 5748 5754 5761 5768 5773 5780 5786 5792 5795 5799 5803 5808 5811 5813 5817 5819 5821 5822 5826 5828 5831 5834
5688 5683 5679 5677 5675 5673 5670 5670 5673 5677 5679 5683 5688 5695 5701 5707 5714 5720 5727 5734 5741 5748 5755 5760 5766 5774 5781 5787 5791 5791 5796 5802 5808 5809 5815 5815 5817 5818 5821 5823 5826 5828 5830
5684 5680 5677 5676 5675 5674 5673 5675 5678 5680 5683 5687 5692 5697 5702 5708 5713 5720 5728 5735 5741 5749 5755 5760 5766 5774 5777 5783 5790 5792 5798 5802 5806 5810 5811 5811 5815 5818 5821 5823 5826 5827 5826
5682 5679 5677 5677 5678 5677 5678 5680 5682 5685 5688 5692 5696 5700 5705 5710 5716 5721 5728 5735 5743 5750 5756 5760 5766 5771 5777 5782 5786 5792 5796 5800 5804 5808 5808 5811 5815 5818 5820 5821 5823 5824 5824
5681 5679 5679 5679 5680 5681 5682 5684 5686 5689 5694 5698 5701 5704 5709 5714 5718 5724 5730 5737 5744 5751 5756 5762 5766 5771 5776 5781 5786 5790 5795 5798 5803 5804 5807 5812 5814 5816 5819 5819 5821 5821 5823
5682 5681 5681 5682 5683 5684 5686 5688 5691 5695 5698 5702 5704 5707 5711 5715 5720 5725 5732 5739 5740 5752 5756 5765 5768 5771 5777 5782 5786 5790 5792 5797 5801 5804 5808 5810 5813 5815 5817 5817 5819 5820 5821
5685 5684 5684 5685 5687 5688 5691 5693 5696 5700 5703 5706 5707 5709 5714 5718 5723 5728 5733 5739 5744 5752 5758 5764 5769 5773 5777 5781 5786 5788 5791 5797 5800 5803 5807 5809 5811 5813 5815 5817 5817 5819 5820
5688 5687 5688 5689 5691 5693 5695 5698 5701 5704 5707 5710 5712 5714 5716 5720 5724 5730 5737 5741 5748 5754 5762 5768 5770 5775 5778 5781 5786 5788 5793 5795 5799 5802 5806 5808 5809 5811 5813 5816 5817 5819 5819
5691 5690 5690 5692 5694 5696 5698 5701 5704 5708 5711 5713 5716 5719 5720 5723 5726 5732 5739 5744 5750 5756 5761 5765 5770 5774 5777 5781 5784 5789 5792 5796 5800 5802 5805 5806 5807 5811 5814 5815 5814 5817 5817
5695 5694 5694 5695 5698 5700 5703 5706 5709 5712 5716 5719 5720 5722 5723 5727 5730 5737 5742 5747 5751 5756 5761 5767 5771 5774 5778 5781 5784 5788 5792 5795 5797 5801 5803 5804 5807 5809 5810 5813 5813 5813 5813
5698 5698 5699 5700 5701 5704 5706 5709 5713 5716 5719 5722 5724 5726 5727 5731 5735 5738 5743 5748 5752 5757 5763 5766 5772 5776 5779 5783 5786 5789 5792 5796 5798 5799 5800 5804 5806 5809 5810 5811 5809 5809 5810
5702 5702 5702 5704 5705 5707 5709 5713 5716 5719 5722 5724 5728 5730 5732 5735 5738 5740 5745 5750 5754 5759 5763 5768 5773 5777 5780 5784 5786 5790 5793 5795 5795 5797 5802 5804 5807 5807 5806 5807 5809 5807 5803
5706 5706 5707 5708 5709 5710 5712 5715 5719 5722 5726 5729 5732 5735 5737 5739 5741 5743 5747 5752 5757 5762 5765 5769 5774 5778 5780 5783 5786 5788 5791 5792 5796 5801 5803 5805 5805 5805 5806 5805 5802 5799 5797
5710 5710 5710 5711 5712 5713 5715 5717 5721 5725 5729 5733 5735 5738 5741 5743 5745 5748 5751 5753 5757 5762 5765 5769 5774 5777 5781 5784 5788 5791 5793 5796 5798 5801 5802 5803 5803 5803 5802 5798 5795 5793 5790
5713 5713 5714 5715 5715 5716 5718 5720 5723 5726 5730 5734 5737 5739 5742 5744 5747 5750 5753 5756 5759 5762 5767 5772 5777 5781 5784 5786 5790 5791 5792 5796 5798 5799 5801 5800 5798 5796 5794 5793 5790 5786 5782
5717 5717 5718 5718 5718 5719 5720 5723 5725 5729 5732 5735 5738 5741 5743 5745 5749 5752 5755 5758 5763 5768 5772 5776 5779 5782 5785 5787 5790 5791 5793 5795 5797 5797 5794 5794 5794 5792 5789 5786 5781 5779 5774
5723 5722 5722 5721 5721 5722 5722 5726 5729 5732 5735 5738 5740 5743 5746 5749 5751 5754 5758 5762 5766 5770 5774 5777 5781 5783 5785 5788 5790 5792 5792 5794 5793 5793 5792 5789 5786 5783 5782 5780 5775 5770 5764
5728 5728 5727 5728 5729 5729 5730 5733 5735 5736 5739 5741 5744 5748 5751 5753 5755 5758 5763 5766 5769 5772 5776 5780 5782 5784 5787 5788 5790 5791 5790 5790 5790 5789 5787 5783 5780 5779 5776 5772 5767 5760 5755